Regional Weather Roundup
Issued by NWS Wakefield, VA

Home | Current Version | Previous Version | Text Only | Print | Product List | Glossary Off
Versions: 1 2 3 4 5 6 7 8 9 10 11 12 13 14 15 16 17 18 19 20 21 22 23 24 25 26 27

000
ASUS41 KAKQ 202114
RWRAKQ

REGIONAL WEATHER ROUNDUP
NATIONAL WEATHER SERVICE WAKEFIELD VA
400 PM EST MON NOV 20 2017

Note: "fair" indicates few or no clouds below 12,000 feet with no
significant weather and/or obstructions to visibility. * = Denotes
station may not report precipitation (e.g., rain,snow,etc.),
thunder or fog.

VAZ042-051-052>054-056-202200-
NORTHERN VIRGINIA

CITY           SKY/WX    TMP DP  RH WIND       PRES   REMARKS
WASH NATIONAL  PTCLDY    52  21  29 SW9       30.18S
DULLES         PTCLDY    50  23  34 S9        30.16S
FORT BELVOIR   CLEAR     52  19  27 W6        30.18R
QUANTICO       CLEAR     53  21  28 SW7       30.20R
FREDERICKSBRG* CLEAR     53  23  31 W7        30.18S
STAFFORD*      CLEAR     51  19  28 SW6       30.22R
WARRENTON      NOT AVBL
CULPEPER*      CLEAR     52  19  26 SW8       30.19R
MANASSAS*      CLEAR     51  23  33 SW6       30.18S
LEESBURG*      CLEAR     52  27  37 SW9       30.16S
WINCHESTER     CLEAR     48  21  34 SW6       30.14R
FRONT ROYAL*   CLEAR     50  21  32 MISG      30.14R
LURAY*         CLEAR     48  21  34 S10G17    30.15S
$$

VAZ048-049-060>072-079>083-202200-
CENTRAL AND SOUTH CENTRAL VIRGINIA

CITY           SKY/WX    TMP DP  RH WIND       PRES   REMARKS
RICHMOND       PTCLDY    53  22  29 SW7       30.20R
CHESTERFIELD*  NOT AVBL
PETERSBURG*    CLEAR    N/A N/A N/A CALM      30.21S
HANOVER        CLEAR     53  22  29 SW5       30.21R
TAPPAHANNOCK*    N/A    N/A N/A N/A MISG        N/A
QUINTON*       FAIR      53  22  29 S5        30.20R
CHARLOTTSVILLE CLEAR     53  19  26 VRB5      30.17S
GORDONSVILLE*  CLEAR     53  21  29 S8        30.17S
ORANGE*        CLEAR     50  21  32 SW7       30.18R
LOUISA*        CLEAR     52  20  28 SW5       30.23R
BUMPASS*       FAIR      52  17  25 SW3       30.19R
FARMVILLE*     CLEAR     55  26  33 CALM      30.18S
CREWE*         FAIR      53  26  34 S5        30.20R
FORT PICKETT*  NOT AVBL
CHASE CITY*    FAIR      53  25  34 CALM      30.21S
CLARKSVILLE*   FAIR      54  27  35 CALM      30.21S
SOUTH HILL*    CLEAR     52  29  41 S5        30.27S
LAWRENCEVILLE* FAIR      53  24  32 CALM      30.21R
EMPORIA*       CLEAR     52  27  37 S3        30.24R
$$

VAZ088>098-202200-
SOUTHEAST VIRGINIA

CITY           SKY/WX    TMP DP  RH WIND       PRES   REMARKS
NORFOLK        CLEAR     53  25  33 CALM      30.22S
VIRGINIA BEACH CLEAR     52  23  32 SW6       30.22S
NORFOLK NAVAL  PTCLDY    52  26  36 W3        30.23S
WEST POINT*    CLEAR     53  20  28 W5        30.22R
SALUDA*        FAIR      52  24  33 SW3       30.20S
NEWPORT NEWS   CLEAR     52  28  39 SW6       30.21F
LANGLEY AFB    CLEAR     52  28  39 W7        30.21S
FORT EUSTIS    CLEAR     52  27  38 CALM      30.19S
WILLIAMSBURG*  CLEAR     55  27  33 CALM      30.22R
HR EXEC AP*    NOT AVBL
FRANKLIN*      CLEAR     53  23  31 CALM      30.23R
US460-WAKEFLD  CLEAR     53  27  36 SW5       30.22S
$$

VAZ020-022-025-037-045-202200-
WEST CENTRAL AND SOUTHWEST VIRGINIA

CITY           SKY/WX    TMP DP  RH WIND       PRES   REMARKS
STAUNTON*      CLEAR     47  21  36 SW12      30.19R
WAYNESBORO*    CLEAR     47  19  33 SW8       30.17R
HOT SPRINGS VA SUNNY     38  15  38 SW13      30.13R
LYNCHBURG      SUNNY     51  19  28 S8        30.19F
DANVILLE       SUNNY     54  24  31 CALM      30.21S
SOUTH BOSTON*  FAIR      55  20  26 CALM      30.21S
MARTINSVILLE   SUNNY     54  22  28 SE3       30.21F
ROANOKE        MOSUNNY   52  22  30 W7        30.20S
BLACKSBURG     SUNNY     48  22  35 SW5       30.20S
DUBLIN*        SUNNY     49  23  36 CALM      30.18F
MARION*        SUNNY     48  11  23 W9        30.18F
HILLSVILLE*    SUNNY     50  17  27 SW3       30.15S
RICHLANDS*     FAIR      46  22  39 CALM      30.16S
WISE*          SUNNY     46  23  39 S6        30.15F
ABINGDON*      SUNNY     51  18  27 CALM      30.17S
$$

MDZ021>025-VAZ099-100-202200-
SOUTHERN MARYLAND AND THE DELMARVA PENINSULA

CITY           SKY/WX    TMP DP  RH WIND       PRES   REMARKS
PATUXENT RIVER PTCLDY    51  23  33 W10       30.19R
BAY BRIDGE APT CLEAR     50  27  40 SW9       30.18R
LEONARDTOWN    CLEAR     50  23  34 W5        30.19F
DOVER          CLEAR     47  23  37 W12       30.16R
GEORGETOWN     CLEAR     49  22  34 W7        30.19R
EASTON         CLEAR     50  21  32 NW12      30.21R
CAMBRIDGE      CLEAR     50  25  37 W6        30.19R
SALISBURY      CLEAR     48  26  42 W14       30.19R
OCEAN CITY     CLEAR     48  26  42 W9        30.20R
WALLOPS ISLAND PTCLDY    48  28  46 W7        30.22R
ACCOMACK*      CLEAR     50  29  44 W5        30.21R
$$

NCZ012>017-030>032-202200-
NORTH CENTRAL AND EASTERN NORTH CAROLINA

CITY           SKY/WX    TMP DP  RH WIND       PRES   REMARKS
ROANOKE RAPIDS FAIR      54  30  40 S5        30.22
RALEIGH        MOSUNNY   56  24  29 CALM      30.22F
ELIZABETH CITY CLEAR     54  30  40 N3        30.23S
AHOSKIE*       CLEAR     52  24  33 CALM      30.24R
EDENTON*       CLEAR     55  29  37 CALM      30.24S
CURRITUCK*     CLEAR     54  27  35 CALM      30.23S
KILL DEVIL HLS CLEAR     50  31  48 CALM      30.22S
MANTEO         CLEAR     50  31  48 N6        30.24S
CAPE HATTERAS  CLEAR     53  38  56 VRB5      30.24R
TARBORO*       NOT AVBL
GOLDSBORO      SUNNY     56  24  29 CALM      30.22R
WASHINGTON     CLEAR     55  27  34 CALM      30.24R
GREENVILLE     CLEAR     55  27  33 CALM      30.25R
NEW BERN       CLEAR     55  28  35 CALM      30.25R
WILMINGTON     SUNNY     60  28  29 N3        30.24R
$$

VAZ048-202200-
ELSEWHERE

CITY           SKY/WX    TMP DP  RH WIND       PRES   REMARKS
HARRISBURG PA  MOCLDY    47  25  42 SW13      30.12R
BALTIMORE      PTCLDY    49  22  34 W10       30.16S
ANNAPOLIS      NOT AVBL
ANDREWS AFB    CLEAR     50  19  29 W8        30.16S
PHILADELPHIA   MOCLDY    48  22  35 W18       30.13R
HENDERSON NC   SUNNY     51  21  30 CALM      30.22R
GREENSBORO     PTSUNNY   54  19  25 S7        30.19F
ROCKY MOUNT    SUNNY     55  28  35 NE3       30.23S
$$

VAZ100-202200-
MARINE

STATION/POSITION TIME  TEMP    WIND        PRES    WAVE   SWELL
                       AIR SEA DIR/SP/G            HT/PER HT/PER
                 (UTC) (F)     (DEG/KT/KT) (MB)    (FT/S) (FT/S)
BRANDYWINE LGT   2042   48     280/ 16/ 20 1021.6R
CAPE MAY NJ      2048   47 47  290/ 15/ 18 1020.8R
LEWES DE         2042   48 51  290/ 14/ 17 1021.3R
15NM E FENWICK I 2050   50 59  270/ 14/ 17 1022.1R   3/ 4
OCEAN-CITY-INLET 2042   49 54  290/  9/ 12 1022.6R
WACHAPREAGUE VA  2042   50 51  250/  5/  9 1023.2R
THOMAS POINT MD  2100   50 52  270/ 10/ 12   N/A
GOOSES REEF MD   2050   51     290/ 12/ 14 1026.5F
COVE POINT MD    2042   51     290/  7/  9 1022.8R
SOLOMONS ISLAND  2042   51 54  230/ 10/ 15 1021.9R
BISHOPS HEAD MD  2042   49 47  260/ 12/ 14 1022.8R
PINEY POINT MD   2042          340/  6/  7   N/A
POTOMAC MD       2050   52     270/ 10/ 12 1021.9R
CAMBRIDGE MD     2042   50 50              1023.1R
LEWISETTA VA     2042   52 52  260/  8/  9 1022.4R
RAPPAHANNOCK LGT 2042          170/  3/  5 1023.6R
STINGRAY PT      2050   53     320/  6/  8 1023.0R
YORK RVR RNG VA  2042   52     260/  8/  9 1023.5R
YORKTOWN VA      2042   52 55  250/  7/ 10 1022.7R
JAMESTOWN VA     2050          310/  4/  4   N/A
DOMINION TERM VA 2042   54     250/  2/  2 1023.4S
KIPTOPEKE VA     2042      54  250/  7/  9   N/A
CAPE HENRY VA    2042   52     260/  5/  8   N/A
WILLOUBY STN VA  2042   53     250/  6/  6 1023.2R
S CRANEY ISL VA  2042   54     270/  1/  4 1023.1S
CAPE HENRY BUOY  2100      59                N/A     2/ 3
1ST LANDING BUOY 2050   52     260/ 10/ 12 1023.4F
CAPE CHARLES BUO 2051      58                N/A     2/10
64NM E OF VA BCH 2050   50 60  300/ 12/ 16 1024.2R   4/ 7   3/ 7
DUCK PIER NC     2042   52 60  310/  4/  6 1023.2F
44100 DUCK FRF   2045      61                N/A     2/ 8
44056 DUCK FRF   2100      61                N/A     2/ 7
OREGON INLET NC  2042   50 56  310/  6/  8 1023.8S
HATTERAS NC      2042   52 57   20/  8/ 10 1023.5R
DIAMOND SHLS NC  2100   53 66  350/ 10/ 14 1024.2
CAPE LOOKOUT NC  2100          360/  4/  4 1024.3R
$$




USA.gov is the U.S. government's official web portal to all federal, state and local government web resources and services.